User: anonymous   Login
Location: Unspecified
(0.0000°N, 0.0000°E)
Time: 05:23:17
(UTC+00:00)
Language:

STARLINK-5306 - Orbit

View from above orbital plane
View from above orbital plane
View from above satellite
View from above satellite

Ground track
Ground track

The orbit is defined by the following mean orbital elements,

1 55271U          26145.59977399 +.00000000 +00000-0 +10722-4 0 00005
2 55271  69.9990 210.6427 0003656 269.8387  90.2353 14.98333680    06
Epoch (UTC): 25 May 2026 14:23:40
Eccentricity: 0.0003656
inclination: 69.9990°
perigee height: 570 km
apogee height: 575 km
right ascension of ascending node: 210.6427°
argument of perigee: 269.8387°
revolutions per day: 14.98333680
mean anomaly at epoch: 90.2353°

The dashed part of the orbit path shows where the satellite is in the earth's shadow,  

DLR